Location: Amsterdam
(30.7274°N, 84.4357°W)
Time: 18:43:25
(UTC+00:00)

Altair - Pass Details

Date: 15 August 2024
Orbit: 1501 x 1682 km, 47.2° (Epoch: 07 September)

Event Time Altitude Azimuth Distance (km) Brightness Sun altitude
Rises 22:41:29 0° 309° (NW) 4,768 11.0 19.8°
Reaches altitude 10° 22:44:38 10° 311° (NW) 3,758 10.6 19.1°
Maximum altitude 22:54:07 77° 38° (NE) 1,561 7.8 17.1°
Drops below altitude 10° 23:03:18 10° 124° (SE) 3,648 9.0 15.1°
Sets 23:06:18 0° 126° (SE) 4,623 9.5 14.5°
